Flag for Cuba Weather past 2 weeks in Santiago de Cuba, Cuba

Now
75 °F

Passing clouds.


Feels Like: 75 °F
Forecast: 72 / 90 °F
Wind: 5 mph from North

Location: Santiago De Cuba - Oriente

Current Time: Sep 19, 2014 at 6:29:35 AM

Latest Report: Sep 19, 2014 at 5:51 AM


Visibility: 6 mi

Pressure: 29.92 "Hg

Humidity: 83%

Dew point: 70 °F

Location of Santiago de CubaLocation

Historic Weather in Santiago de Cuba — Graph

°F

Santiago de Cuba temperature yesterday

Maximum temperature yesterday: 88 °F (at 2:52 PM)
Minimum temperature yesterday: 75 °F (at 3:51 AM)
Average temperature yesterday: 81 °F

Past Weeks' High & Low Weather Summary

 TemperatureHumidityPressure
High91 °F (Sep 4, 11:52 AM)94% (Sep 6, 5:53 PM)30.07 "Hg (Sep 6, 5:53 PM)
Low72 °F (Sep 6, 2:52 PM)43% (Sep 14, 10:52 AM)29.89 "Hg (Sep 7, 4:51 PM)
Average81 °F72%29.97 "Hg
* Reported Sep 4 4:52 AM — Sep 19 4:50 AM, Santiago de Cuba, Weather by CustomWeather, © 2014

Note: Actual official high and low records may vary slightly from our data, if they occured in-between our weather recording intervals... More about our weather records

Advertising

Santiago de Cuba weather history for previous 24 hours

 ConditionsComfort  
Time TempWeatherWind HumidityBarometerVisibility
4:50 AM
Sep 19
73 °FPassing clouds.5 mph83%29.92 "Hg6 mi
3:50 AM75 °FPassing clouds.2 mph83%29.92 "Hg6 mi
2:50 AM75 °FPassing clouds.5 mph83%29.92 "Hg6 mi
1:50 AM75 °FPassing clouds.5 mph83%29.95 "Hg6 mi
12:50 AM77 °FPassing clouds.6 mph83%29.98 "Hg6 mi
11:50 PM
Sep 18
77 °FPassing clouds.5 mph83%29.95 "Hg6 mi
10:50 PM77 °FPassing clouds.5 mph79%29.95 "Hg6 mi
9:50 PM79 °FPassing clouds.2 mph79%29.98 "Hg6 mi
8:50 PM81 °FPassing clouds.5 mph74%29.95 "Hg6 mi
7:50 PM82 °FScattered clouds.3 mph74%29.92 "Hg6 mi
6:50 PM84 °FScattered clouds.5 mph66%29.92 "HgN/A
5:52 PM86 °FScattered clouds.7 mph62%29.92 "Hg6 mi
4:51 PM86 °FScattered clouds.10 mph66%29.89 "Hg6 mi
3:52 PM88 °FScattered clouds.10 mph59%29.92 "Hg6 mi
2:52 PM88 °FScattered clouds.8 mph59%29.92 "Hg6 mi
1:52 PM86 °FPassing clouds.9 mph62%29.95 "Hg6 mi
12:52 PM86 °FPassing clouds.8 mph62%29.98 "Hg6 mi
11:52 AM86 °FScattered clouds.7 mph66%29.98 "Hg6 mi
10:53 AM86 °FScattered clouds.6 mph66%29.98 "Hg6 mi
9:50 AM84 °FScattered clouds.3 mph70%29.98 "Hg6 mi
8:52 AM79 °FScattered showers. Scattered clouds.3 mph84%29.98 "Hg5 mi
7:54 AM75 °FScattered showers. Scattered clouds.5 mph89%29.95 "Hg6 mi
6:50 AM75 °FScattered showers. Passing clouds.5 mph89%29.95 "Hg6 mi
Weather by CustomWeather, © 2014

See weather overviewHow to use our weather pages